Location: Diebersbach
(48.5163°N, 8.0558°E)
Time: 09:42:09
(UTC+00:00)

Cosmos 2237 Rocket - Pass Details

Date: 20 June 2021
Orbit: 835 x 850 km, 71.0° (Epoch: 27 July)

Event Time Altitude Azimuth Distance (km) Brightness Sun altitude
Exits shadow 00:20:24 - 255° (WSW) 3,312 5.0 -17.1°
Reaches altitude 10° 00:23:15 10° 270° (W) 2,449 4.5 -17.0°
Maximum altitude 00:27:26 21° 319° (NW) 1,797 4.3 -16.9°
Drops below altitude 10° 00:31:39 10° 8° (N) 2,459 5.9 -16.7°
Sets 00:34:44 0° 24° (NNE) 3,398 7.1 -16.6°
